| time (UTC) | temp F | wind direction | speed knots | gust knots | rain 1hr in | rain 24hr in | rain mn in | humidity % | barometer mb |
| 20260904052516 | 62 | 157 | 6.1 | 8.7 | 0.00 | 0.00 | 0.00 | 38 | 1025.0 |
| 20260904051519 | 60 | 164 | 7.0 | 8.7 | 0.00 | 0.00 | 0.00 | 42 | 1025.0 |
| 20260904050519 | 61 | 162 | 2.6 | 6.1 | 0.00 | 0.00 | 0.00 | 41 | 1025.2 |
| 20260904045620 | 60 | 141 | 4.3 | 8.7 | 0.00 | 0.00 | 0.00 | 41 | 1025.1 |
| 20260904044524 | 61 | 110 | 2.6 | 4.3 | 0.00 | 0.00 | 0.00 | 42 | 1025.1 |
| 20260904043519 | 62 | 111 | 2.6 | 5.2 | 0.00 | 0.00 | 0.00 | 39 | 1025.1 |
| 20260904042539 | 62 | 26 | 2.6 | 4.3 | 0.00 | 0.00 | 0.00 | 38 | 1025.2 |
| 20260904041519 | 63 | 178 | 3.5 | 8.7 | 0.00 | 0.00 | 0.00 | 37 | 1025.1 |
| 20260904040520 | 63 | 218 | 4.3 | 6.1 | 0.00 | 0.00 | 0.00 | 38 | 1025.0 |
| 20260904035540 | 64 | 195 | 5.2 | 8.7 | 0.00 | 0.00 | 0.00 | 35 | 1025.0 |
| 20260904034517 | 64 | 198 | 7.0 | 10.4 | 0.00 | 0.00 | 0.00 | 40 | 1025.0 |
| 20260904033520 | 64 | 198 | 7.0 | 8.7 | 0.00 | 0.00 | 0.00 | 39 | 1024.9 |
| 20260904032517 | 64 | 185 | 7.0 | 12.2 | 0.00 | 0.00 | 0.00 | 39 | 1024.8 |
| 20260904031521 | 65 | 161 | 5.2 | 7.8 | 0.00 | 0.00 | 0.00 | 38 | 1024.8 |
| 20260904030521 | 64 | 171 | 6.1 | 7.0 | 0.00 | 0.00 | 0.00 | 37 | 1024.8 |
| 20260904025521 | 64 | 152 | 6.1 | 7.8 | 0.00 | 0.00 | 0.00 | 39 | 1024.8 |
| 20260904024521 | 65 | 151 | 5.2 | 8.7 | 0.00 | 0.00 | 0.00 | 36 | 1024.7 |
| 20260904023521 | 64 | 161 | 5.2 | 7.8 | 0.00 | 0.00 | 0.00 | 36 | 1024.7 |
| 20260904022522 | 63 | 155 | 5.2 | 7.0 | 0.00 | 0.00 | 0.00 | 38 | 1024.6 |
| 20260904021522 | 64 | 152 | 5.2 | 7.8 | 0.00 | 0.00 | 0.00 | 36 | 1024.4 |
| 20260904020516 | 66 | 167 | 5.2 | 7.0 | 0.00 | 0.00 | 0.00 | 34 | 1024.3 |
| 20260904015517 | 67 | 220 | 5.2 | 7.0 | 0.00 | 0.00 | 0.00 | 31 | 1024.2 |
| 20260904014517 | 68 | 211 | 5.2 | 8.7 | 0.00 | 0.00 | 0.00 | 31 | 1024.1 |
| 20260904013523 | 69 | 221 | 4.3 | 7.0 | 0.00 | 0.00 | 0.00 | 29 | 1024.1 |
| 20260904012517 | 70 | 219 | 5.2 | 8.7 | 0.00 | 0.00 | 0.00 | 28 | 1024.0 |
| 20260904011518 | 72 | 216 | 5.2 | 7.0 | 0.00 | 0.00 | 0.00 | 28 | 1024.0 |
| 20260904010518 | 74 | 222 | 5.2 | 7.8 | 0.00 | 0.00 | 0.00 | 26 | 1024.0 |
| 20260904005517 | 75 | 229 | 7.0 | 17.4 | 0.00 | 0.00 | 0.00 | 25 | 1023.9 |
| 20260904004518 | 75 | 238 | 6.1 | 9.6 | 0.00 | 0.00 | 0.00 | 24 | 1023.9 |
| 20260904003518 | 76 | 248 | 7.0 | 11.3 | 0.00 | 0.00 | 0.00 | 23 | 1023.9 |
| 20260904002518 | 76 | 243 | 7.0 | 11.3 | 0.00 | 0.00 | 0.00 | 23 | 1023.9 |
| 20260904001539 | 76 | 232 | 6.1 | 9.6 | 0.00 | 0.00 | 0.00 | 24 | 1023.9 |
| 20260904000519 | 75 | 221 | 5.2 | 9.6 | 0.00 | 0.00 | 0.00 | 25 | 1023.9 |
| 20260903235536 | 77 | 242 | 6.1 | 8.7 | 0.00 | 0.00 | 0.00 | 24 | 1023.9 |
| 20260903234539 | 78 | 259 | 8.7 | 13.0 | 0.00 | 0.00 | 0.00 | 23 | 1023.9 |
| 20260903233539 | 78 | 249 | 8.7 | 15.6 | 0.00 | 0.00 | 0.00 | 23 | 1023.8 |
| 20260903232536 | 78 | 237 | 6.1 | 12.2 | 0.00 | 0.00 | 0.00 | 22 | 1023.8 |
| 20260903231516 | 78 | 247 | 7.0 | 12.2 | 0.00 | 0.00 | 0.00 | 22 | 1023.9 |
| 20260903230517 | 78 | 260 | 7.0 | 16.5 | 0.00 | 0.00 | 0.00 | 22 | 1023.9 |
| 20260903225520 | 78 | 308 | 7.0 | 10.4 | 0.00 | 0.00 | 0.00 | 22 | 1024.0 |
| 20260903224518 | 78 | 272 | 5.2 | 13.0 | 0.00 | 0.00 | 0.00 | 22 | 1024.0 |
| 20260903223558 | 78 | 264 | 7.0 | 13.9 | 0.00 | 0.00 | 0.00 | 22 | 1024.1 |
| 20260903222518 | 78 | 279 | 6.1 | 10.4 | 0.00 | 0.00 | 0.00 | 22 | 1024.1 |
| 20260903221520 | 78 | 260 | 2.6 | 7.0 | 0.00 | 0.00 | 0.00 | 22 | 1024.3 |
| 20260903220539 | 78 | 222 | 8.7 | 15.6 | 0.00 | 0.00 | 0.00 | 22 | 1024.4 |
| 20260903215518 | 78 | 229 | 9.6 | 15.6 | 0.00 | 0.00 | 0.00 | 22 | 1024.4 |
| 20260903214521 | 77 | 251 | 3.5 | 6.1 | 0.00 | 0.00 | 0.00 | 23 | 1024.5 |
| 20260903213519 | 77 | 255 | 7.0 | 13.9 | 0.00 | 0.00 | 0.00 | 22 | 1024.5 |
| 20260903212522 | 77 | 351 | 3.5 | 7.8 | 0.00 | 0.00 | 0.00 | 20 | 1024.7 |
| 20260903211539 | 77 | 291 | 5.2 | 7.8 | 0.00 | 0.00 | 0.00 | 20 | 1024.8 |
| 20260903210516 | 77 | 289 | 7.0 | 14.8 | 0.00 | 0.00 | 0.00 | 20 | 1024.8 |
| 20260903205519 | 76 | 260 | 4.3 | 13.9 | 0.00 | 0.00 | 0.00 | 22 | 1025.0 |
| 20260903204519 | 76 | 276 | 7.0 | 13.0 | 0.00 | 0.00 | 0.00 | 22 | 1025.1 |
| 20260903203516 | 76 | 321 | 5.2 | 8.7 | 0.00 | 0.00 | 0.00 | 22 | 1025.2 |
| 20260903202517 | 76 | 283 | 4.3 | 9.6 | 0.00 | 0.00 | 0.00 | 21 | 1025.2 |
| 20260903201537 | 76 | 224 | 7.0 | 13.9 | 0.00 | 0.00 | 0.00 | 23 | 1025.3 |
| 20260903200517 | 76 | 289 | 5.2 | 10.4 | 0.00 | 0.00 | 0.00 | 21 | 1025.3 |
| 20260903195517 | 76 | 267 | 3.5 | 7.0 | 0.00 | 0.00 | 0.00 | 20 | 1025.5 |
| 20260903194517 | 75 | 271 | 4.3 | 10.4 | 0.00 | 0.00 | 0.00 | 21 | 1025.5 |
| 20260903193518 | 75 | 275 | 6.1 | 10.4 | 0.00 | 0.00 | 0.00 | 22 | 1025.6 |
| 20260903192518 | 76 | 284 | 9.6 | 13.9 | 0.00 | 0.00 | 0.00 | 21 | 1025.6 |
| 20260903191539 | 76 | 264 | 11.3 | 17.4 | 0.00 | 0.00 | 0.00 | 20 | 1025.6 |
| 20260903190518 | 75 | 236 | 5.2 | 11.3 | 0.00 | 0.00 | 0.00 | 21 | 1025.7 |
| 20260903185518 | 75 | 272 | 7.8 | 16.5 | 0.00 | 0.00 | 0.00 | 22 | 1025.7 |
| 20260903184519 | 75 | 241 | 6.1 | 11.3 | 0.00 | 0.00 | 0.00 | 24 | 1025.8 |
| 20260903183516 | 74 | 314 | 4.3 | 8.7 | 0.00 | 0.00 | 0.00 | 23 | 1025.8 |
| 20260903182519 | 75 | 255 | 7.0 | 13.9 | 0.00 | 0.00 | 0.00 | 22 | 1025.9 |
| 20260903181519 | 74 | 162 | 3.5 | 7.8 | 0.00 | 0.00 | 0.00 | 26 | 1026.0 |
| 20260903180520 | 74 | 236 | 5.2 | 10.4 | 0.00 | 0.00 | 0.00 | 26 | 1026.0 |
| 20260903175516 | 73 | 257 | 5.2 | 9.6 | 0.00 | 0.00 | 0.00 | 26 | 1026.2 |
| 20260903174520 | 73 | 249 | 3.5 | 8.7 | 0.00 | 0.00 | 0.00 | 25 | 1026.2 |
| 20260903173520 | 73 | 235 | 4.3 | 10.4 | 0.00 | 0.00 | 0.00 | 27 | 1026.2 |
| 20260903172520 | 73 | 254 | 5.2 | 7.8 | 0.00 | 0.00 | 0.00 | 28 | 1026.3 |
| 20260903171520 | 72 | 223 | 4.3 | 7.8 | 0.00 | 0.00 | 0.00 | 27 | 1026.3 |
| 20260903170521 | 71 | 202 | 4.3 | 7.8 | 0.00 | 0.00 | 0.00 | 27 | 1026.3 |
| 20260903165517 | 71 | 203 | 4.3 | 7.8 | 0.00 | 0.00 | 0.00 | 27 | 1026.3 |
| 20260903164521 | 71 | 223 | 4.3 | 7.8 | 0.00 | 0.00 | 0.00 | 29 | 1026.3 |
| 20260903163521 | 70 | 255 | 4.3 | 7.0 | 0.00 | 0.00 | 0.00 | 29 | 1026.3 |
| 20260903162521 | 70 | 315 | 4.3 | 7.0 | 0.00 | 0.00 | 0.00 | 32 | 1026.1 |
| 20260903161518 | 70 | 320 | 5.2 | 9.6 | 0.00 | 0.00 | 0.00 | 33 | 1026.0 |
| 20260903160518 | 69 | 286 | 5.2 | 9.6 | 0.00 | 0.00 | 0.00 | 34 | 1026.2 |
| 20260903155518 | 69 | 288 | 6.1 | 11.3 | 0.00 | 0.00 | 0.00 | 35 | 1026.3 |
| 20260903154519 | 68 | 272 | 6.1 | 9.6 | 0.00 | 0.00 | 0.00 | 35 | 1026.5 |
| 20260903153516 | 68 | 282 | 7.8 | 12.2 | 0.00 | 0.00 | 0.00 | 35 | 1026.5 |
| 20260903152519 | 68 | 287 | 5.2 | 9.6 | 0.00 | 0.00 | 0.00 | 35 | 1026.5 |
| 20260903151522 | 68 | 279 | 4.3 | 8.7 | 0.00 | 0.00 | 0.00 | 36 | 1026.6 |
| 20260903150543 | 68 | 227 | 3.5 | 6.1 | 0.00 | 0.00 | 0.00 | 35 | 1026.7 |
| 20260903145517 | 67 | 231 | 5.2 | 8.7 | 0.00 | 0.00 | 0.00 | 37 | 1026.8 |
| 20260903144517 | 66 | 209 | 7.0 | 9.6 | 0.00 | 0.00 | 0.00 | 41 | 1026.8 |
| 20260903143517 | 66 | 186 | 8.7 | 11.3 | 0.00 | 0.00 | 0.00 | 41 | 1026.8 |
| 20260903142517 | 65 | 193 | 8.7 | 13.0 | 0.00 | 0.00 | 0.00 | 43 | 1026.7 |
| 20260903141517 | 64 | 188 | 9.6 | 13.9 | 0.00 | 0.00 | 0.00 | 45 | 1026.8 |
| 20260903132519 | 59 | 190 | 7.0 | 9.6 | 0.00 | 0.00 | 0.00 | 51 | 1026.3 |
| 20260903131518 | 58 | 187 | 6.1 | 8.7 | 0.00 | 0.00 | 0.00 | 54 | 1026.1 |
| 20260903130519 | 57 | 204 | 5.2 | 7.8 | 0.00 | 0.00 | 0.00 | 54 | 1026.0 |
| 20260903125519 | 56 | 185 | 4.3 | 7.0 | 0.00 | 0.00 | 0.00 | 54 | 1026.1 |
| 20260903124519 | 57 | 185 | 5.2 | 7.0 | 0.00 | 0.00 | 0.00 | 56 | 1025.9 |
| 20260903123540 | 58 | 210 | 5.2 | 7.8 | 0.00 | 0.00 | 0.00 | 50 | 1025.8 |
| 20260903122520 | 58 | 180 | 4.3 | 6.1 | 0.00 | 0.00 | 0.00 | 52 | 1025.8 |
| 20260903121520 | 59 | 226 | 5.2 | 7.8 | 0.00 | 0.00 | 0.00 | 47 | 1025.7 |
| 20260903120520 | 56 | 181 | 4.3 | 7.0 | 0.00 | 0.00 | 0.00 | 57 | 1025.6 |
| 20260903115520 | 57 | 197 | 5.2 | 7.8 | 0.00 | 0.00 | 0.00 | 55 | 1025.6 |
| 20260903114520 | 57 | 257 | 2.6 | 6.1 | 0.00 | 0.00 | 0.00 | 53 | 1025.4 |
| 20260903113530 | 58 | 209 | 2.6 | 4.3 | 0.00 | 0.00 | 0.00 | 52 | 1025.6 |
| 20260903112541 | 58 | 181 | 4.3 | 7.8 | 0.00 | 0.00 | 0.00 | 51 | 1025.4 |
| 20260903111541 | 57 | 174 | 5.2 | 6.1 | 0.00 | 0.00 | 0.00 | 52 | 1025.4 |
| 20260903110521 | 58 | 116 | 2.6 | 5.2 | 0.00 | 0.00 | 0.00 | 50 | 1025.3 |
| 20260903105521 | 57 | 143 | 4.3 | 7.0 | 0.00 | 0.00 | 0.00 | 50 | 1025.4 |
| 20260903104521 | 56 | 89 | 3.5 | 5.2 | 0.00 | 0.00 | 0.00 | 54 | 1025.5 |
| 20260903103530 | 57 | 126 | 2.6 | 4.3 | 0.00 | 0.00 | 0.00 | 51 | 1025.5 |
| 20260903102522 | 57 | 128 | 3.5 | 6.1 | 0.00 | 0.00 | 0.00 | 52 | 1025.4 |
| 20260903101536 | 57 | 143 | 4.3 | 6.1 | 0.00 | 0.00 | 0.00 | 50 | 1025.4 |
| 20260903100516 | 56 | 94 | 2.6 | 4.3 | 0.00 | 0.00 | 0.00 | 53 | 1025.5 |
| 20260903095522 | 56 | 129 | 2.6 | 6.1 | 0.00 | 0.00 | 0.00 | 56 | 1025.4 |
| 20260903094531 | 59 | 119 | 1.7 | 3.5 | 0.00 | 0.00 | 0.00 | 50 | 1025.3 |
| 20260903093551 | 60 | 119 | 1.7 | 2.6 | 0.00 | 0.00 | 0.00 | 46 | 1025.5 |
| 20260903092532 | 59 | 128 | 1.7 | 3.5 | 0.00 | 0.00 | 0.00 | 45 | 1025.5 |
| 20260903091517 | 59 | 114 | 1.7 | 3.5 | 0.00 | 0.00 | 0.00 | 49 | 1025.5 |
| 20260903090537 | 62 | 146 | 3.5 | 6.1 | 0.00 | 0.00 | 0.00 | 46 | 1025.5 |
| 20260903085517 | 63 | 154 | 1.7 | 5.2 | 0.00 | 0.00 | 0.00 | 40 | 1025.6 |
| 20260903084517 | 62 | 198 | 1.7 | 3.5 | 0.00 | 0.00 | 0.00 | 41 | 1025.6 |
| 20260903083517 | 62 | 351 | 2.6 | 4.3 | 0.00 | 0.00 | 0.00 | 41 | 1025.5 |
| 20260903082538 | 62 | 123 | 2.6 | 6.1 | 0.00 | 0.00 | 0.00 | 41 | 1025.5 |
| 20260903081518 | 61 | 111 | 2.6 | 5.2 | 0.00 | 0.00 | 0.00 | 42 | 1025.5 |
| 20260903080518 | 61 | 239 | 3.5 | 10.4 | 0.00 | 0.00 | 0.00 | 46 | 1025.6 |
| 20260903075518 | 59 | 102 | 2.6 | 6.1 | 0.00 | 0.00 | 0.00 | 46 | 1025.6 |
| 20260903074518 | 58 | 152 | 3.5 | 5.2 | 0.00 | 0.00 | 0.00 | 50 | 1025.7 |
| 20260903073518 | 58 | 104 | 1.7 | 2.6 | 0.00 | 0.00 | 0.00 | 51 | 1025.6 |
| 20260903072539 | 60 | 114 | 3.5 | 6.1 | 0.00 | 0.00 | 0.00 | 49 | 1025.5 |
| 20260903071519 | 61 | 153 | 2.6 | 4.3 | 0.00 | 0.00 | 0.00 | 45 | 1025.6 |
| 20260903070519 | 61 | 152 | 6.1 | 9.6 | 0.00 | 0.00 | 0.00 | 43 | 1025.5 |
| 20260903065519 | 60 | 208 | 3.5 | 6.1 | 0.00 | 0.00 | 0.00 | 47 | 1025.7 |
| 20260903064519 | 62 | 129 | 2.6 | 7.0 | 0.00 | 0.00 | 0.00 | 44 | 1025.6 |
| 20260903063517 | 62 | 183 | 4.3 | 9.6 | 0.00 | 0.00 | 0.00 | 43 | 1025.6 |
| 20260903062520 | 62 | 141 | 4.3 | 7.0 | 0.00 | 0.00 | 0.00 | 44 | 1025.6 |
| 20260903061517 | 65 | 268 | 8.7 | 15.6 | 0.00 | 0.00 | 0.00 | 36 | 1025.3 |
| 20260903060520 | 60 | 184 | 2.6 | 4.3 | 0.00 | 0.00 | 0.00 | 43 | 1025.6 |
| 20260903055520 | 59 | 168 | 4.3 | 7.0 | 0.00 | 0.00 | 0.00 | 47 | 1025.6 |
| 20260903054520 | 59 | 160 | 4.3 | 5.2 | 0.00 | 0.00 | 0.00 | 45 | 1025.7 |
| 20260903053521 | 59 | 168 | 4.3 | 6.1 | 0.00 | 0.00 | 0.00 | 44 | 1025.8 |